period_start,C,m1,H,J0,J1,J2,J3,J4,J5,JA,JB,JC,JD,JJ,JK,JN,#
2015-01-11 00:01:39,0.26,7.50,0.00,19.54,24.20,27.06,4.95,28.56,1026.22,2040.99,1513.45,1850.39,1999.35,350.23,355.34,34.65,0000 0000 0000 0000 000000
2015-01-11 00:06:40,0.27,7.51,0.00,19.55,24.19,27.03,4.93,28.38,1026.36,2041.00,1512.32,1849.41,1998.24,349.53,354.53,34.68,0000 0000 0000 0000 000000
2015-01-11 00:11:41,0.26,7.52,0.00,19.56,24.17,26.98,4.85,28.27,1026.17,2041.00,1511.17,1848.47,1997.23,349.85,354.78,34.70,0000 0000 0000 0000 000000
2015-01-11 00:16:43,0.24,7.52,0.00,19.56,24.17,26.98,4.93,28.36,1026.06,2041.00,1510.04,1847.68,1996.29,349.96,355.01,34.73,0000 0000 0000 0000 000000
2015-01-11 00:21:44,0.24,7.53,0.00,19.60,24.15,26.93,5.06,28.49,1025.91,2041.00,1508.90,1846.81,1995.28,350.67,355.73,34.76,0000 0000 0000 0000 000000
2015-01-11 00:26:45,0.29,7.54,0.00,19.63,24.15,26.88,4.95,28.57,1025.91,2041.01,1507.72,1845.92,1994.40,349.94,354.68,34.79,0000 0000 0000 0000 000000
2015-01-11 00:31:46,0.26,7.55,0.00,19.64,24.15,26.85,4.88,28.51,1025.90,2041.01,1506.66,1845.04,1993.38,349.96,354.94,34.82,0000 0000 0000 0000 000000
2015-01-11 00:36:48,0.24,7.56,0.00,19.67,24.15,26.86,4.87,28.41,1025.89,2041.01,1505.69,1844.20,1992.52,350.42,355.21,34.85,0000 0000 0000 0000 000000
2015-01-11 00:41:49,0.28,7.56,0.00,19.66,24.14,26.84,4.80,28.49,1025.89,2041.00,1504.55,1843.34,1991.55,349.89,354.93,34.88,0000 0000 0000 0000 000000
2015-01-11 00:46:50,0.22,7.57,0.00,19.68,24.14,26.81,4.89,28.30,1025.89,2041.02,1503.63,1842.54,1990.70,350.29,355.43,34.91,0000 0000 0000 0000 000000
2015-01-11 00:51:52,0.24,7.58,0.00,19.72,24.14,26.79,4.83,28.27,1025.77,2041.02,1502.49,1841.73,1989.76,350.04,354.84,34.94,0000 0000 0000 0000 000000
2015-01-11 00:56:53,0.23,7.58,0.00,19.74,24.14,26.78,4.97,28.29,1025.44,2041.01,1501.43,1840.91,1988.81,350.65,355.32,34.97,0000 0000 0000 0000 000000
2015-01-11 01:01:54,0.38,1.27,0.00,19.77,24.15,26.78,4.31,24.13,1025.41,2045.16,3104.36,3110.92,3375.41,310.85,315.05,0.00,0000 0000 0000 0000 000000
2015-01-11 01:06:55,0.37,0.00,0.00,19.82,24.15,26.77,4.83,27.10,1025.42,2045.99,3420.14,3362.89,3650.25,349.39,354.09,0.03,0000 0000 0000 0000 000000
2015-01-11 01:11:56,0.36,0.01,0.00,19.84,24.16,26.80,4.80,27.00,1025.41,2045.98,3416.40,3360.49,3647.34,349.35,354.03,0.06,0000 0000 0000 0000 000000
2015-01-11 01:16:58,0.34,0.01,0.00,19.80,24.17,26.84,4.95,26.98,1025.37,2045.97,3412.96,3358.17,3644.62,350.77,355.29,0.09,0000 0000 0000 0000 000000
2015-01-11 01:21:59,0.31,0.02,0.00,19.84,24.17,26.85,4.92,27.13,1025.07,2045.97,3409.60,3355.84,3641.85,350.28,354.70,0.12,0000 0000 0000 0000 000000
2015-01-11 01:27:00,0.27,0.03,0.00,19.84,24.19,26.85,4.89,27.13,1025.03,2045.95,3406.45,3353.64,3639.23,350.42,354.73,0.15,0000 0000 0000 0000 000000
2015-01-11 01:32:01,0.20,0.04,0.00,19.91,24.20,26.88,4.87,26.99,1025.39,2045.71,3403.38,3351.47,3636.75,349.77,354.16,0.17,0000 0000 0000 0000 000000
2015-01-11 01:37:03,0.21,0.04,0.00,19.93,24.21,26.88,4.84,27.05,1025.35,2045.56,3400.34,3349.35,3634.35,350.01,354.56,0.20,0000 0000 0000 0000 000000
2015-01-11 01:42:04,0.19,0.05,0.00,19.99,24.22,26.89,4.90,27.01,1025.04,2045.20,3397.21,3347.10,3631.84,350.23,354.33,0.23,0000 0000 0000 0000 000000
2015-01-11 01:47:05,0.23,0.05,0.00,20.00,24.24,26.92,4.83,27.22,1024.95,2045.25,3394.36,3345.04,3629.49,349.58,353.89,0.26,0000 0000 0000 0000 000000
2015-01-11 01:52:06,0.19,0.06,0.00,20.05,24.26,26.93,4.92,27.07,1024.89,2045.12,3391.46,3343.00,3627.14,350.35,354.31,0.29,0000 0000 0000 0000 000000
2015-01-11 01:57:07,0.18,0.06,0.00,20.02,24.27,26.95,4.93,27.24,1024.50,2045.03,3388.98,3341.09,3624.96,350.47,354.41,0.32,0000 0000 0000 0000 000000
2015-01-11 02:02:08,0.17,0.07,0.00,20.09,24.30,26.97,4.94,27.16,1024.43,2045.02,3386.69,3339.44,3623.05,350.84,354.52,0.35,0000 0000 0000 0000 000000
2015-01-11 02:07:10,0.16,0.07,0.00,20.10,24.32,27.00,4.94,27.30,1024.38,2045.00,3384.54,3337.86,3621.40,350.55,354.36,0.38,0000 0000 0000 0000 000000
2015-01-11 02:12:11,0.16,0.08,0.00,20.15,24.33,27.03,4.85,27.15,1024.43,2045.00,3382.37,3336.38,3619.62,349.94,353.69,0.41,0000 0000 0000 0000 000000
2015-01-11 02:17:13,0.14,0.08,0.00,20.13,24.36,27.06,4.84,27.00,1024.43,2045.00,3380.43,3334.90,3617.99,349.06,352.71,0.44,0000 0000 0000 0000 000000
2015-01-11 02:22:14,0.16,0.09,0.00,20.16,24.38,27.07,4.83,27.02,1024.43,2044.99,3378.37,3333.43,3616.30,350.20,354.18,0.47,0000 0000 0000 0000 000000
2015-01-11 02:27:15,0.14,0.09,0.00,20.21,24.40,27.08,4.88,27.05,1024.43,2044.98,3376.38,3331.93,3614.67,350.34,353.98,0.50,0000 0000 0000 0000 000000
2015-01-11 02:32:17,0.13,0.10,0.00,20.23,24.43,27.13,4.87,27.03,1024.43,2044.96,3374.53,3330.65,3613.19,350.29,353.92,0.53,0000 0000 0000 0000 000000
2015-01-11 02:37:18,0.12,0.10,0.00,20.23,24.45,27.14,4.86,26.82,1024.43,2044.85,3372.61,3329.27,3611.62,350.14,353.85,0.56,0000 0000 0000 0000 000000
2015-01-11 02:42:19,0.07,0.10,0.00,20.27,24.47,27.17,4.89,27.02,1024.43,2044.33,3370.56,3327.77,3609.98,350.23,353.96,0.58,0000 0000 0000 0000 000000
2015-01-11 02:47:20,0.11,0.11,0.00,20.27,24.50,27.20,4.88,26.86,1024.41,2044.12,3368.78,3326.55,3608.49,349.86,353.57,0.61,0000 0000 0000 0000 000000
2015-01-11 02:52:21,0.12,0.11,0.00,20.36,24.53,27.21,4.80,26.82,1024.08,2044.03,3367.01,3325.25,3606.92,349.44,352.82,0.64,0000 0000 0000 0000 000000
2015-01-11 02:57:22,0.12,0.11,0.00,20.40,24.56,27.26,4.87,27.17,1023.95,2044.00,3365.26,3323.95,3605.56,350.15,353.44,0.67,0000 0000 0000 0000 000000
2015-01-11 03:02:24,0.14,0.12,0.00,20.41,24.58,27.29,4.92,27.25,1023.94,2044.01,3363.59,3322.73,3604.12,350.37,353.68,0.70,0000 0000 0000 0000 000000
2015-01-11 03:07:25,0.13,0.12,0.00,20.42,24.61,27.30,4.86,27.09,1023.87,2044.00,3361.90,3321.58,3602.79,350.42,353.70,0.73,0000 0000 0000 0000 000000
2015-01-11 03:12:26,0.12,0.13,0.00,20.48,24.64,27.35,4.91,26.93,1023.68,2044.00,3360.26,3320.35,3601.46,350.56,353.69,0.76,0000 0000 0000 0000 000000
2015-01-11 03:17:27,0.12,0.13,0.00,20.49,24.67,27.39,4.89,27.03,1023.64,2043.98,3358.60,3319.07,3600.10,349.90,352.98,0.79,0000 0000 0000 0000 000000
2015-01-11 03:22:29,0.13,0.13,0.00,20.49,24.70,27.40,4.86,27.07,1023.86,2043.98,3356.95,3317.92,3598.81,349.64,352.80,0.82,0000 0000 0000 0000 000000
2015-01-11 03:27:29,0.11,0.14,0.00,20.55,24.73,27.45,4.90,26.98,1023.94,2043.95,3355.55,3316.78,3597.56,349.88,353.07,0.85,0000 0000 0000 0000 000000
2015-01-11 03:32:31,0.03,0.14,0.00,20.57,24.76,27.49,4.87,27.04,1023.91,2043.51,3353.88,3315.63,3596.20,350.04,353.12,0.88,0000 0000 0000 0000 000000
2015-01-11 03:37:32,0.08,0.14,0.00,20.50,24.79,27.54,4.86,27.12,1023.68,2043.15,3352.38,3314.51,3594.90,349.97,353.03,0.91,0000 0000 0000 0000 000000
2015-01-11 03:42:33,0.12,0.14,0.00,20.44,24.81,27.59,4.84,26.92,1023.69,2043.04,3350.73,3313.29,3593.55,350.09,353.26,0.94,0000 0000 0000 0000 000000
2015-01-11 03:47:35,0.09,0.15,0.00,20.47,24.84,27.59,4.87,26.94,1023.55,2043.01,3349.35,3312.27,3592.32,350.04,353.44,0.97,0000 0000 0000 0000 000000
2015-01-11 03:52:36,0.12,0.15,0.00,20.49,24.87,27.61,4.91,26.96,1023.45,2043.00,3347.76,3311.10,3590.97,350.07,353.30,0.99,0000 0000 0000 0000 000000
2015-01-11 03:57:37,0.12,0.15,0.00,20.60,24.90,27.65,4.90,27.17,1023.44,2042.99,3346.27,3309.90,3589.70,349.98,352.80,1.02,0000 0000 0000 0000 000000
2015-01-11 04:02:38,0.11,0.16,0.00,20.62,24.93,27.66,4.89,27.07,1023.43,2042.98,3344.81,3308.84,3588.54,350.22,353.14,1.05,0000 0000 0000 0000 000000
2015-01-11 04:07:39,0.09,0.16,0.00,20.69,24.96,27.69,4.86,27.13,1023.44,2042.83,3343.33,3307.72,3587.31,349.60,352.40,1.08,0000 0000 0000 0000 000000
2015-01-11 04:12:41,0.08,0.16,0.00,20.75,24.97,27.71,4.90,27.19,1023.44,2042.62,3341.99,3306.73,3586.20,349.71,352.42,1.11,0000 0000 0000 0000 000000
2015-01-11 04:17:42,0.05,0.16,0.00,20.81,25.00,27.77,4.90,27.02,1023.44,2042.41,3340.73,3305.79,3585.06,349.95,352.58,1.14,0000 0000 0000 0000 000000
2015-01-11 04:22:43,0.06,0.16,0.00,20.81,25.03,27.78,4.84,26.95,1023.45,2042.07,3339.36,3304.74,3583.95,350.02,352.72,1.17,0000 0000 0000 0000 000000
2015-01-11 04:27:44,0.08,0.17,0.00,20.90,25.06,27.79,4.85,26.97,1023.42,2042.02,3338.02,3303.79,3582.97,349.96,352.52,1.20,0000 0000 0000 0000 000000
2015-01-11 04:32:45,0.12,0.17,0.00,20.98,25.09,27.82,4.87,26.82,1023.25,2042.00,3336.70,3302.76,3581.93,349.74,352.01,1.23,0000 0000 0000 0000 000000
2015-01-11 04:37:47,0.09,0.17,0.00,21.00,25.11,27.87,4.84,27.12,1023.09,2042.00,3335.39,3301.82,3580.88,350.35,352.68,1.26,0000 0000 0000 0000 000000
2015-01-11 04:42:48,0.10,0.18,0.00,21.10,25.14,27.88,4.78,27.26,1023.00,2041.98,3333.97,3300.82,3579.78,349.52,351.73,1.29,0000 0000 0000 0000 000000
2015-01-11 04:47:49,0.10,0.18,0.00,21.14,25.18,27.94,4.98,27.34,1022.98,2041.96,3332.73,3299.79,3578.63,350.73,352.79,1.32,0000 0000 0000 0000 000000
2015-01-11 04:52:50,0.08,0.18,0.00,21.14,25.21,28.00,4.93,27.27,1022.96,2041.86,3331.52,3298.83,3577.49,349.94,351.85,1.35,0000 0000 0000 0000 000000
2015-01-11 04:57:52,0.03,0.18,0.00,21.18,25.24,28.01,4.81,26.93,1022.93,2041.56,3330.29,3297.84,3576.41,349.81,351.79,1.38,0000 0000 0000 0000 000000
2015-01-11 05:02:53,0.04,0.19,0.00,21.22,25.27,28.05,4.81,27.04,1022.95,2041.09,3328.92,3296.85,3575.26,349.86,351.92,1.40,0000 0000 0000 0000 000000
2015-01-11 05:07:54,0.09,0.19,0.00,21.23,25.30,28.09,4.90,27.03,1022.96,2041.01,3327.63,3295.95,3574.13,350.37,352.05,1.43,0000 0000 0000 0000 000000
2015-01-11 05:12:55,0.10,0.19,0.00,21.27,25.33,28.12,4.86,27.02,1022.92,2041.00,3326.50,3294.95,3573.11,350.42,352.50,1.46,0000 0000 0000 0000 000000
2015-01-11 05:17:56,0.10,0.19,0.00,21.31,25.37,28.14,4.83,26.94,1022.82,2041.00,3325.22,3293.89,3572.03,349.93,351.74,1.49,0000 0000 0000 0000 000000
2015-01-11 05:22:57,0.13,0.20,0.00,21.34,25.40,28.18,4.86,27.03,1022.54,2041.00,3323.76,3292.79,3570.71,350.48,352.11,1.52,0000 0000 0000 0000 000000
2015-01-11 05:27:58,0.07,0.20,0.00,21.41,25.43,28.22,4.84,26.83,1022.59,2040.93,3322.51,3291.85,3569.72,349.78,351.42,1.55,0000 0000 0000 0000 000000
2015-01-11 05:32:59,0.05,0.20,0.00,21.42,25.46,28.27,4.77,27.02,1022.49,2040.58,3321.23,3290.87,3568.51,350.24,352.11,1.58,0000 0000 0000 0000 000000
2015-01-11 05:38:01,0.04,0.20,0.00,21.45,25.50,28.29,4.81,27.16,1022.45,2040.14,3319.91,3289.90,3567.53,349.49,351.01,1.61,0000 0000 0000 0000 000000
2015-01-11 05:43:02,0.09,0.20,0.00,21.46,25.53,28.34,4.86,27.07,1022.44,2040.03,3318.67,3288.94,3566.42,350.11,351.65,1.64,0000 0000 0000 0000 000000
2015-01-11 05:48:03,0.10,0.21,0.00,21.52,25.57,28.34,4.80,26.93,1022.44,2040.00,3317.37,3287.97,3565.29,349.55,351.11,1.67,0000 0000 0000 0000 000000
2015-01-11 05:53:04,0.09,0.21,0.00,21.57,25.60,28.38,4.90,26.81,1022.41,2040.00,3316.18,3286.98,3564.31,350.25,351.65,1.70,0000 0000 0000 0000 000000
2015-01-11 05:58:06,0.10,0.21,0.00,21.57,25.64,28.43,4.89,27.07,1022.36,2040.00,3314.78,3286.04,3563.17,350.63,351.99,1.73,0000 0000 0000 0000 000000
2015-01-11 06:03:07,0.09,0.22,0.00,21.62,25.67,28.46,4.80,27.09,1022.22,2039.97,3313.63,3285.08,3562.17,349.86,351.15,1.76,0000 0000 0000 0000 000000
2015-01-11 06:08:08,0.08,0.22,0.00,21.59,25.71,28.50,4.88,27.10,1022.01,2039.88,3312.33,3284.11,3561.07,350.07,351.03,1.78,0000 0000 0000 0000 000000
2015-01-11 06:13:10,0.05,0.22,0.00,21.66,25.74,28.53,4.87,27.00,1022.01,2039.63,3311.14,3283.21,3560.12,349.80,350.98,1.81,0000 0000 0000 0000 000000
2015-01-11 06:18:11,0.04,0.22,0.00,21.73,25.77,28.55,4.86,27.01,1022.00,2039.20,3309.77,3282.24,3559.11,350.07,350.89,1.84,0000 0000 0000 0000 000000
2015-01-11 06:23:12,0.09,0.22,0.00,21.77,25.81,28.60,4.80,27.09,1022.00,2039.04,3308.54,3281.32,3558.01,349.78,350.91,1.87,0000 0000 0000 0000 000000
2015-01-11 06:28:14,0.09,0.23,0.00,21.80,25.84,28.61,4.85,27.14,1021.99,2039.00,3307.38,3280.33,3556.95,350.16,351.14,1.90,0000 0000 0000 0000 000000
2015-01-11 06:33:15,0.09,0.23,0.00,21.84,25.88,28.66,4.81,26.97,1021.99,2039.00,3306.06,3279.44,3555.98,349.59,350.66,1.93,0000 0000 0000 0000 000000
2015-01-11 06:38:16,0.11,0.23,0.00,21.86,25.91,28.70,4.90,27.13,1021.99,2038.98,3304.82,3278.48,3554.82,350.59,351.36,1.96,0000 0000 0000 0000 000000
2015-01-11 06:43:18,0.08,0.23,0.00,21.91,25.94,28.72,4.79,26.87,1021.98,2038.90,3303.65,3277.51,3553.79,349.96,350.86,1.99,0000 0000 0000 0000 000000
2015-01-11 06:48:19,0.04,0.24,0.00,21.94,25.98,28.75,4.82,26.90,1021.96,2038.66,3302.47,3276.64,3552.82,350.28,351.03,2.02,0000 0000 0000 0000 000000
2015-01-11 06:53:20,0.02,0.24,0.00,21.99,26.01,28.80,4.83,26.83,1021.92,2038.16,3301.30,3275.67,3551.74,350.19,350.88,2.05,0000 0000 0000 0000 000000
2015-01-11 06:58:22,0.09,0.24,0.00,22.01,26.05,28.83,4.82,26.90,1021.72,2038.02,3300.03,3274.74,3550.63,350.10,350.70,2.08,0000 0000 0000 0000 000000
2015-01-11 07:03:23,0.10,0.24,0.00,22.02,26.08,28.87,4.81,26.91,1021.67,2038.00,3298.66,3273.72,3549.55,349.49,350.23,2.11,0000 0000 0000 0000 000000
2015-01-11 07:08:24,0.09,0.25,0.00,22.08,26.11,28.90,4.87,27.05,1021.53,2038.00,3297.47,3272.81,3548.50,350.01,350.41,2.14,0000 0000 0000 0000 000000
2015-01-11 07:13:25,0.08,0.25,0.00,22.12,26.15,28.92,4.83,26.82,1021.52,2037.99,3296.27,3271.92,3547.42,349.50,349.92,2.17,0000 0000 0000 0000 000000
2015-01-11 07:18:27,0.09,0.25,0.00,22.14,26.19,28.98,4.83,26.71,1021.52,2037.95,3295.08,3270.93,3546.33,350.30,350.57,2.20,0000 0000 0000 0000 000000
2015-01-11 07:23:28,0.02,0.25,0.00,22.16,26.22,29.01,4.85,26.84,1021.51,2037.55,3293.76,3269.97,3545.37,350.27,350.82,2.22,0000 0000 0000 0000 000000
2015-01-11 07:28:29,0.05,0.25,0.00,22.19,26.26,29.06,4.83,26.75,1021.50,2037.13,3292.58,3269.05,3544.37,350.41,350.47,2.25,0000 0000 0000 0000 000000
2015-01-11 07:33:31,0.07,0.26,0.00,22.21,26.29,29.09,4.83,26.70,1021.50,2037.02,3291.41,3268.13,3543.26,349.87,350.22,2.28,0000 0000 0000 0000 000000
2015-01-11 07:38:32,0.09,0.26,0.00,22.28,26.32,29.12,4.80,26.85,1021.50,2037.00,3290.15,3267.16,3542.20,349.79,350.17,2.31,0000 0000 0000 0000 000000
2015-01-11 07:43:34,0.09,0.26,0.00,22.30,26.36,29.14,4.90,26.91,1021.49,2037.00,3289.01,3266.20,3541.22,350.37,350.74,2.34,0000 0000 0000 0000 000000
2015-01-11 07:48:35,0.09,0.26,0.00,22.37,26.39,29.18,4.76,26.88,1021.43,2036.98,3287.96,3265.36,3540.19,349.78,350.07,2.37,0000 0000 0000 0000 000000
2015-01-11 07:53:36,0.08,0.27,0.00,22.42,26.43,29.21,4.84,27.00,1021.35,2036.93,3286.93,3264.59,3539.25,350.16,350.15,2.40,0000 0000 0000 0000 000000
2015-01-11 07:58:37,-0.01,0.27,0.00,22.45,26.47,29.24,4.83,26.75,1021.21,2036.50,3285.85,3263.77,3538.26,349.51,349.38,2.43,0000 0000 0000 0000 000000
2015-01-11 08:03:38,0.03,0.27,0.00,22.48,26.51,29.29,4.84,26.86,1021.04,2036.08,3284.71,3263.00,3537.29,349.89,349.62,2.46,0000 0000 0000 0000 000000
2015-01-11 08:08:39,0.09,0.27,0.00,22.54,26.54,29.32,4.80,26.73,1021.04,2036.01,3283.52,3262.12,3536.37,350.01,349.81,2.49,0000 0000 0000 0000 000000
2015-01-11 08:13:40,0.09,0.27,0.00,22.57,26.58,29.36,4.74,26.78,1021.04,2036.00,3282.34,3261.19,3535.50,349.47,349.07,2.52,0000 0000 0000 0000 000000
2015-01-11 08:18:42,0.09,0.28,0.00,22.61,26.61,29.41,4.80,26.84,1021.02,2035.98,3281.11,3260.25,3534.42,349.93,349.57,2.55,0000 0000 0000 0000 000000
2015-01-11 08:23:43,0.08,0.28,0.00,22.67,26.65,29.46,4.83,26.93,1021.01,2035.96,3280.02,3259.44,3533.59,349.69,349.37,2.58,0000 0000 0000 0000 000000
2015-01-11 08:28:44,0.04,0.28,0.00,22.72,26.69,29.48,4.85,26.84,1021.01,2035.77,3278.95,3258.66,3532.77,350.09,349.78,2.61,0000 0000 0000 0000 000000
2015-01-11 08:33:45,0.00,0.28,0.00,22.75,26.73,29.52,4.77,26.87,1021.01,2035.22,3277.88,3257.80,3531.72,349.43,348.77,2.63,0000 0000 0000 0000 000000
2015-01-11 08:38:47,0.07,0.28,0.00,22.78,26.77,29.58,4.78,26.77,1020.97,2035.03,3276.80,3256.91,3530.72,350.03,349.44,2.66,0000 0000 0000 0000 000000
2015-01-11 08:43:48,0.08,0.28,0.00,22.77,26.81,29.61,4.79,26.71,1021.00,2035.00,3275.76,3256.05,3529.85,349.90,349.46,2.69,0000 0000 0000 0000 000000
2015-01-11 08:48:49,0.09,0.29,0.00,22.83,26.85,29.66,4.81,26.68,1020.99,2034.99,3274.72,3255.19,3528.90,349.54,348.86,2.72,0000 0000 0000 0000 000000
2015-01-11 08:53:51,0.08,0.29,0.00,22.89,26.89,29.69,4.81,26.76,1020.94,2034.95,3273.68,3254.39,3528.04,349.81,349.21,2.75,0000 0000 0000 0000 000000
2015-01-11 08:58:52,0.05,0.29,0.00,22.95,26.93,29.73,4.84,26.76,1020.78,2034.86,3272.80,3253.75,3527.23,350.36,349.53,2.78,0000 0000 0000 0000 000000
2015-01-11 09:03:53,-0.00,0.29,0.00,22.99,26.98,29.78,4.77,26.88,1020.66,2034.38,3271.84,3253.00,3526.33,350.25,349.33,2.81,0000 0000 0000 0000 000000
2015-01-11 09:08:54,0.04,0.29,0.00,23.03,27.02,29.82,4.82,26.92,1020.82,2034.08,3270.84,3252.14,3525.56,349.79,348.97,2.84,0000 0000 0000 0000 000000
2015-01-11 09:13:55,0.08,0.29,0.00,23.07,27.06,29.87,4.78,26.68,1021.00,2034.01,3269.82,3251.36,3524.77,349.95,349.07,2.87,0000 0000 0000 0000 000000
2015-01-11 09:18:56,0.09,0.30,0.00,23.10,27.10,29.92,4.84,26.82,1020.96,2034.00,3268.73,3250.49,3523.85,350.21,349.15,2.90,0000 0000 0000 0000 000000
2015-01-11 09:23:57,0.07,0.30,0.00,23.13,27.14,29.93,4.82,26.87,1020.97,2034.00,3267.71,3249.76,3522.96,350.24,349.21,2.93,0000 0000 0000 0000 000000
2015-01-11 09:28:59,0.08,0.30,0.00,23.17,27.18,29.99,4.87,26.78,1020.99,2033.96,3266.64,3248.89,3522.01,350.53,349.26,2.96,0000 0000 0000 0000 000000
2015-01-11 09:34:00,0.02,0.30,0.00,23.23,27.22,30.03,4.79,26.61,1021.01,2033.66,3265.50,3248.02,3521.10,349.35,348.42,2.99,0000 0000 0000 0000 000000
2015-01-11 09:39:01,0.02,0.30,0.00,23.26,27.26,30.05,4.82,26.92,1021.00,2033.18,3264.46,3247.15,3520.22,350.10,349.09,3.02,0000 0000 0000 0000 000000
2015-01-11 09:44:02,0.08,0.31,0.00,23.30,27.31,30.10,4.84,26.71,1020.91,2033.05,3263.46,3246.40,3519.48,350.40,349.12,3.04,0000 0000 0000 0000 000000
2015-01-11 09:49:04,0.16,0.31,0.00,23.31,27.35,30.16,4.86,26.86,1020.83,2033.01,3262.20,3244.87,3518.08,350.15,348.55,3.07,0000 0000 0000 0000 000000
2015-01-11 09:54:05,0.11,0.31,0.00,23.34,27.39,30.19,4.77,26.87,1020.64,2033.00,3260.59,3243.48,3516.67,349.91,348.69,3.10,0000 0000 0000 0000 000000
2015-01-11 09:59:06,0.08,0.32,0.00,23.43,27.43,30.19,4.82,26.65,1020.65,2033.00,3259.50,3242.63,3515.72,350.24,348.74,3.13,0000 0000 0000 0000 000000
2015-01-11 10:04:08,0.09,0.32,0.00,23.46,27.48,30.21,4.81,26.62,1020.83,2032.97,3258.35,3241.71,3514.72,350.48,348.87,3.16,0000 0000 0000 0000 000000
2015-01-11 10:09:09,0.08,0.32,0.00,23.48,27.52,30.24,4.75,26.70,1020.57,2032.91,3257.18,3240.70,3513.67,349.44,348.17,3.19,0000 0000 0000 0000 000000
2015-01-11 10:14:10,0.02,0.32,0.00,23.49,27.56,30.28,4.78,26.90,1020.53,2032.58,3255.93,3239.81,3512.70,349.93,348.41,3.22,0000 0000 0000 0000 000000
2015-01-11 10:19:12,0.04,0.32,0.00,23.53,27.60,30.34,4.75,26.81,1020.53,2032.12,3254.80,3238.89,3511.58,349.39,347.65,3.25,0000 0000 0000 0000 000000
2015-01-11 10:24:13,0.08,0.33,0.00,23.55,27.63,30.38,4.75,26.73,1020.52,2032.03,3253.63,3238.00,3510.56,350.01,348.34,3.28,0000 0000 0000 0000 000000
2015-01-11 10:29:14,0.09,0.33,0.00,23.56,27.67,30.42,4.79,26.76,1020.52,2032.01,3252.43,3237.06,3509.65,350.40,348.70,3.31,0000 0000 0000 0000 000000
2015-01-11 10:34:16,0.09,0.33,0.00,23.58,27.70,30.45,4.75,26.87,1020.51,2032.00,3251.24,3236.10,3508.54,349.87,348.09,3.34,0000 0000 0000 0000 000000
2015-01-11 10:39:17,0.10,0.34,0.00,23.58,27.73,30.48,4.76,26.86,1020.22,2031.99,3250.02,3235.20,3507.55,350.00,348.09,3.37,0000 0000 0000 0000 000000
2015-01-11 10:44:18,0.09,0.34,0.00,23.61,27.76,30.51,4.83,26.83,1020.04,2031.97,3248.83,3234.22,3506.55,350.35,348.57,3.40,0000 0000 0000 0000 000000
2015-01-11 10:49:20,0.09,0.34,0.00,23.63,27.78,30.53,4.78,26.94,1020.04,2031.91,3247.64,3233.31,3505.57,349.67,347.50,3.43,0000 0000 0000 0000 000000
2015-01-11 10:54:21,0.05,0.34,0.00,23.61,27.81,30.56,4.79,27.07,1020.04,2031.69,3246.32,3232.33,3504.57,350.29,348.35,3.45,0000 0000 0000 0000 000000
2015-01-11 10:59:22,0.06,0.34,0.00,23.63,27.83,30.57,4.80,27.12,1020.03,2031.39,3245.02,3231.42,3503.57,349.55,347.49,3.48,0000 0000 0000 0000 000000
2015-01-11 11:04:23,0.08,0.35,0.00,23.63,27.85,30.60,4.83,26.99,1020.08,2031.13,3243.74,3230.35,3502.40,349.82,348.23,3.51,0000 0000 0000 0000 000000
2015-01-11 11:09:24,0.08,0.35,0.00,23.64,27.87,30.61,4.79,26.98,1020.35,2031.06,3242.51,3229.44,3501.41,349.81,347.95,3.54,0000 0000 0000 0000 000000
2015-01-11 11:14:25,0.09,0.35,0.00,23.63,27.89,30.63,4.81,26.98,1020.39,2031.03,3241.18,3228.47,3500.37,349.85,348.05,3.57,0000 0000 0000 0000 000000
2015-01-11 11:19:26,0.11,0.36,0.00,23.65,27.90,30.64,4.78,27.08,1020.51,2031.01,3239.78,3227.42,3499.25,349.78,348.03,3.60,0000 0000 0000 0000 000000
2015-01-11 11:24:27,0.11,0.36,0.00,23.65,27.92,30.66,4.77,26.87,1020.53,2031.00,3238.42,3226.42,3497.99,349.98,348.13,3.63,0000 0000 0000 0000 000000
2015-01-11 11:29:28,0.11,0.36,0.00,23.68,27.92,30.70,4.82,26.94,1020.54,2031.00,3237.01,3225.34,3496.79,349.95,348.07,3.66,0000 0000 0000 0000 000000
2015-01-11 11:34:29,0.12,0.37,0.00,23.73,27.95,30.71,4.79,26.94,1020.62,2031.00,3235.55,3224.23,3495.62,350.39,348.57,3.69,0000 0000 0000 0000 000000
2015-01-11 11:39:31,0.12,0.37,0.00,23.72,27.95,30.71,4.78,27.23,1020.74,2030.99,3233.95,3223.06,3494.35,350.35,348.63,3.72,0000 0000 0000 0000 000000
2015-01-11 11:44:32,0.10,0.37,0.00,23.68,27.96,30.72,4.77,27.07,1020.59,2030.98,3232.61,3222.04,3493.22,349.97,348.35,3.75,0000 0000 0000 0000 000000
2015-01-11 11:49:34,0.10,0.38,0.00,23.71,27.97,30.74,4.77,27.05,1020.53,2030.97,3231.24,3221.02,3492.03,349.99,347.81,3.78,0000 0000 0000 0000 000000
2015-01-11 11:54:35,0.14,0.38,0.00,23.74,27.98,30.75,4.80,27.28,1020.51,2030.98,3229.70,3219.89,3490.78,350.00,348.24,3.81,0000 0000 0000 0000 000000
2015-01-11 11:59:36,0.10,0.38,0.00,23.73,28.00,30.75,4.76,27.27,1020.48,2030.95,3228.26,3218.83,3489.56,350.23,348.36,3.84,0000 0000 0000 0000 000000
2015-01-11 12:04:37,0.15,0.39,0.00,23.71,28.00,30.75,4.79,27.38,1020.52,2030.93,3226.60,3217.51,3488.21,350.18,348.36,3.86,0000 0000 0000 0000 000000
2015-01-11 12:09:39,0.12,0.39,0.00,23.70,28.00,30.75,4.79,27.25,1020.52,2030.96,3225.01,3216.49,3486.80,350.05,348.15,3.89,0000 0000 0000 0000 000000
2015-01-11 12:14:40,0.11,0.39,0.00,23.70,28.01,30.78,4.84,27.29,1020.52,2030.88,3223.56,3215.31,3485.54,349.78,347.90,3.92,0000 0000 0000 0000 000000
2015-01-11 12:19:41,0.09,0.40,0.00,23.71,28.02,30.77,4.75,27.29,1020.52,2030.77,3222.02,3214.16,3484.28,349.64,347.92,3.95,0000 0000 0000 0000 000000
2015-01-11 12:24:43,0.12,0.40,0.00,23.69,28.02,30.77,4.81,27.48,1020.52,2030.72,3220.46,3213.00,3482.96,349.96,348.35,3.98,0000 0000 0000 0000 000000
2015-01-11 12:29:44,0.11,0.40,0.00,23.72,28.02,30.78,4.78,27.42,1020.52,2030.69,3218.90,3211.89,3481.71,349.90,347.94,4.01,0000 0000 0000 0000 000000
2015-01-11 12:34:45,0.10,0.41,0.00,23.74,28.02,30.77,4.75,27.34,1020.52,2030.38,3217.31,3210.71,3480.39,350.40,348.68,4.04,0000 0000 0000 0000 000000
2015-01-11 12:39:46,0.10,0.41,0.00,23.72,28.02,30.78,4.73,27.46,1020.51,2030.36,3215.71,3209.58,3479.14,349.45,347.63,4.07,0000 0000 0000 0000 000000
2015-01-11 12:44:48,0.12,0.41,0.00,23.73,28.03,30.78,4.77,27.35,1020.52,2030.24,3213.97,3208.39,3477.74,349.71,348.10,4.10,0000 0000 0000 0000 000000
2015-01-11 12:49:49,0.11,0.42,0.00,23.75,28.05,30.78,4.77,27.24,1020.52,2030.17,3212.40,3207.13,3476.51,349.97,348.12,4.13,0000 0000 0000 0000 000000
2015-01-11 12:54:50,0.16,0.42,0.00,23.74,28.05,30.79,4.82,27.30,1020.52,2030.23,3210.63,3205.84,3475.08,350.53,348.79,4.16,0000 0000 0000 0000 000000
2015-01-11 12:59:51,0.12,0.42,0.00,23.71,28.05,30.79,4.88,27.43,1020.41,2030.18,3208.80,3204.50,3473.56,350.77,348.92,4.19,0000 0000 0000 0000 000000
2015-01-11 13:04:52,0.15,0.43,0.00,23.74,28.05,30.78,4.80,27.35,1020.45,2030.07,3206.78,3203.03,3471.91,350.14,348.19,4.22,0000 0000 0000 0000 000000